Weather History for KDMA - June, 2013

Change the Weather History Date:

Wednesday, June 19, 2013

  Actual Average Record
Temperature  
Mean Temperature 87 °F -  
Max Temperature 104 °F 102 °F 112 °F (1989)
Min Temperature 70 °F 69 °F 56 °F (1979)
Cooling Degree Days 22    
Growing Degree Days 37 (Base 50)    
Moisture  
Dew Point 22 °F    
Average Humidity 8    
Maximum Humidity 15    
Minimum Humidity 4    
Precipitation  
Precipitation 0.00 in - - ()
Sea Level Pressure  
Sea Level Pressure 29.72 in    
Wind  
Wind Speed 10 mph (SW)    
Max Wind Speed 21 mph    
Max Gust Speed 28 mph    
Visibility 10 miles    
Events      
Averages and records for this station are not official NWS values.
T = Trace of Precipitation, MM = Missing Value Source: NWS Daily Summary

Daily Weather History Graph

Daily Weather History Graph

Search for Another Location

Airport or City:

Trip Planner

Search our weather history database for the weather conditions in past years. The results will help you decide how hot, cold, wet, or windy it might be!

Date:

Astronomy

Jun. 19, 2013 Rise Set
Actual Time 5:17 AM MST 7:32 PM MST
Civil Twilight 4:48 AM MST 8:01 PM MST
Nautical Twilight 4:14 AM MST 8:35 PM MST
Astronomical Twilight 3:36 AM MST 9:13 PM MST
Moon 3:38 PM MST (6/19) 1:53 AM MST (6/19)
Length of Visible Light 15h 12m
Length of Day
14h 15m
Waxing Gibbous, 81% of the Moon is Illuminated
Jun 19
Waxing Gibbous
Jun 23
Full
Jun 29
Last Quarter
Jul 8
New
Jul 15
First Quarter

Hourly Weather History & Observations

Time (MST) Temp. Dew Point Humidity Pressure Visibility Wind Dir Wind Speed Gust Speed Precip Events Conditions
12:58 AM 75.2 °F 10.4 °F 8% 29.70 in 10.0 mi SE 8.1 mph - N/A   Clear
1:58 AM 73.8 °F 14.2 °F 10% 29.68 in 10.0 mi SE 6.9 mph - N/A   Clear
2:58 AM 71.6 °F 16.7 °F 12% 29.68 in 10.0 mi SE 10.4 mph - N/A   Clear
3:58 AM 71.2 °F 18.3 °F 13% 29.69 in 10.0 mi SE 8.1 mph - N/A   Clear
4:58 AM 70.2 °F 20.8 °F 15% 29.70 in 10.0 mi SE 10.4 mph - N/A   Clear
5:58 AM 73.0 °F 21.6 °F 14% 29.70 in 10.0 mi SE 9.2 mph - N/A   Clear
6:58 AM 80.2 °F 23.7 °F 12% 29.71 in 10.0 mi SE 11.5 mph - N/A   Clear
7:58 AM 86.0 °F 23.9 °F 10% 29.72 in 10.0 mi SSE 6.9 mph - N/A   Clear
8:58 AM 89.8 °F 25.9 °F 10% 29.72 in 10.0 mi SSE 5.8 mph - N/A   Clear
9:58 AM 94.3 °F 30.9 °F 11% 29.71 in 10.0 mi Variable 4.6 mph - N/A   Clear
10:58 AM 96.4 °F 26.8 °F 8% 29.70 in 10.0 mi Variable 6.9 mph - N/A   Clear
11:53 AM 98.6 °F 32.0 °F 10% 29.83 in 10.0 mi WSW 11.5 mph - N/A   Clear
11:58 AM 98.1 °F 30.7 °F 9% 29.69 in 10.0 mi WSW 8.1 mph - N/A   Partly Cloudy
12:08 PM 98.6 °F 28.4 °F 8% 29.82 in 10.0 mi WSW 15.0 mph 23.0 mph N/A   Clear
12:30 PM 98.6 °F 28.4 °F 8% 29.81 in 10.0 mi SW 16.1 mph 19.6 mph N/A   Clear
12:32 PM 98.6 °F 28.4 °F 8% 29.81 in 10.0 mi SW 12.7 mph 19.6 mph N/A   Clear
12:37 PM 100.4 °F 28.4 °F 8% 29.81 in 10.0 mi WSW 13.8 mph 19.6 mph N/A   Clear
12:38 PM 100.4 °F 28.4 °F 8% 29.81 in 10.0 mi West 12.7 mph 19.6 mph N/A   Clear
12:58 PM 100.4 °F 29.7 °F 8% 29.67 in 10.0 mi WNW 6.9 mph 20.7 mph N/A   Clear
1:15 PM 100.4 °F 26.6 °F 7% 29.80 in 10.0 mi WSW 16.1 mph 19.6 mph N/A   Clear
1:34 PM 100.4 °F 19.4 °F 5% 29.80 in 10.0 mi SW 20.7 mph 27.6 mph N/A   Clear
1:50 PM 102.2 °F 19.4 °F 5% 29.81 in 10.0 mi SW 13.8 mph 21.9 mph N/A   Clear
1:58 PM 102.2 °F 22.3 °F 6% 29.65 in 10.0 mi West 8.1 mph 19.6 mph N/A   Clear
2:12 PM 102.2 °F 19.4 °F 5% 29.79 in 10.0 mi West 15.0 mph 20.7 mph N/A   Clear
2:58 PM 102.9 °F 20.3 °F 5% 29.63 in 10.0 mi SW 12.7 mph 23.0 mph N/A   Clear
3:04 PM 104.0 °F 15.8 °F 4% 29.78 in 10.0 mi WSW 12.7 mph 24.2 mph N/A   Clear
3:58 PM 103.1 °F 15.3 °F 4% 29.62 in 10.0 mi WSW 18.4 mph 21.9 mph N/A   Clear
4:58 PM 102.6 °F 14.9 °F 4% 29.62 in 10.0 mi WNW 12.7 mph - N/A   Clear
5:58 PM 101.1 °F 13.8 °F 4% 29.62 in 10.0 mi WNW 13.8 mph 19.6 mph N/A   Clear
6:58 PM 99.1 °F 14.4 °F 5% 29.62 in 10.0 mi West 12.7 mph - N/A   Clear
7:58 PM 95.0 °F 14.5 °F 5% 29.63 in 10.0 mi WSW 8.1 mph - N/A   Clear
8:58 PM 88.5 °F 13.8 °F 6% 29.66 in 10.0 mi West 6.9 mph - N/A   Clear
9:58 PM 88.2 °F 27.9 °F 11% 29.68 in 10.0 mi West 8.1 mph - N/A   Clear
10:58 PM 83.5 °F 30.0 °F 14% 29.69 in 10.0 mi WNW 3.5 mph - N/A   Clear
11:58 PM 79.2 °F 28.2 °F 15% 29.69 in 10.0 mi South 6.9 mph - N/A   Clear